Change the Weather History Date:

Friday, August 12, 2011

  Actual Average Record
Temperature  
Mean Temperature 69 °F 65 °F  
Max Temperature 80 °F 76 °F 93 °F (1947)
Min Temperature 58 °F 55 °F 38 °F (1967)
Degree Days  
Heating Degree Days 0 2  
Month to date heating degree days 5 24  
Since 1 June heating degree days 166 273  
Since 1 July heating degree days 18 93  
Cooling Degree Days 4 2  
Month to date cooling degree days 51 35  
Year to date cooling degree days 201 148  
Since 1 June cooling degree days 193 143  
Growing Degree Days 20 (Base 50)    
Moisture  
Dew Point 60 °F    
Average Humidity 78    
Maximum Humidity 93    
Minimum Humidity 62    
Precipitation  
Precipitation 0.01 in 0.10 in 1.64 in (1965)
Month to date precipitation 2.37 1.23  
Year to date precipitation 21.34 17.23  
Sea Level Pressure  
Sea Level Pressure 29.91 in    
Wind  
Wind Speed 4 mph (WSW)    
Max Wind Speed 12 mph    
Max Gust Speed 16 mph    
Visibility 9 miles    
Events Rain , Thunderstorm    
T = Trace of Precipitation, MM = Missing Value Source: NWS Daily Summary

Daily Weather History Graph

Daily Weather History Graph

Search for Another Location

Airport or City:

Trip Planner

Search our weather history database for the weather conditions in past years. The results will help you decide how hot, cold, wet, or windy it might be!

Date:

Astronomy

Aug. 12, 2011 Rise Set
Actual Time 6:31 AM EDT 8:52 PM EDT
Civil Twilight 5:58 AM EDT 9:25 PM EDT
Nautical Twilight 5:16 AM EDT 10:07 PM EDT
Astronomical Twilight 4:29 AM EDT 10:54 PM EDT
Moon 8:02 PM EDT (8/12) 5:20 AM EDT (8/12)
Length of Visible Light 15h 27m
Length of Day
14h 20m
Waxing Gibbous, 99% of the Moon is Illuminated
Aug 12
Waxing Gibbous
Aug 13
Full
Aug 21
Last Quarter
Aug 28
New
Sep 4
First Quarter

Hourly Weather History & Observations

Time (EDT) Temp. Heat Index Dew Point Humidity Pressure Visibility Wind Dir Wind Speed Gust Speed Precip Events Conditions
12:55 AM 60.1 °F - 55.0 °F 83% 29.88 in 10.0 mi Calm Calm - N/A   Clear
1:55 AM 59.0 °F - 55.9 °F 90% 29.90 in 10.0 mi SW 3.5 mph - N/A   Partly Cloudy
2:27 AM 60.8 °F - 57.2 °F 88% 29.89 in 10.0 mi Calm Calm - N/A   Mostly Cloudy
2:55 AM 60.1 °F - 57.0 °F 90% 29.88 in 10.0 mi SE 3.5 mph - N/A   Scattered Clouds
3:22 AM 60.8 °F - 57.2 °F 88% 29.89 in 10.0 mi Calm Calm - N/A   Mostly Cloudy
3:55 AM 60.1 °F - 57.0 °F 90% 29.88 in 10.0 mi ENE 3.5 mph - N/A   Overcast
4:11 AM 60.8 °F - 57.2 °F 88% 29.89 in 10.0 mi Calm Calm - N/A   Overcast
4:55 AM 61.0 °F - 57.9 °F 90% 29.88 in 10.0 mi Calm Calm - N/A   Overcast
5:55 AM 62.1 °F - 60.1 °F 93% 29.88 in 8.0 mi Calm Calm - N/A   Overcast
6:47 AM 62.6 °F - 60.8 °F 94% 29.89 in 1.8 mi Calm Calm - N/A   Overcast
6:55 AM 63.0 °F - 61.0 °F 93% 29.88 in 1.2 mi Calm Calm - N/A   Overcast
7:15 AM 62.6 °F - 62.6 °F 100% 29.90 in 3.0 mi Calm Calm - N/A   Overcast
7:55 AM 64.0 °F - 62.1 °F 93% 29.89 in 8.0 mi ESE 3.5 mph - N/A   Overcast
8:55 AM 64.9 °F - 63.0 °F 93% 29.91 in 5.0 mi Variable 3.5 mph - N/A   Overcast
9:45 AM 66.2 °F - 62.6 °F 88% 29.93 in 10.0 mi SW 6.9 mph - N/A   Overcast
9:55 AM 66.9 °F - 63.0 °F 87% 29.92 in 10.0 mi SW 5.8 mph - N/A   Overcast
10:55 AM 70.0 °F - 64.0 °F 81% 29.92 in 10.0 mi South 3.5 mph - N/A   Partly Cloudy
11:55 AM 75.0 °F - 64.9 °F 71% 29.91 in 10.0 mi South 6.9 mph - N/A   Clear
12:55 PM 77.0 °F - 64.0 °F 64% 29.91 in 10.0 mi Variable 6.9 mph - N/A   Clear
1:55 PM 79.0 °F - 64.0 °F 60% 29.91 in 10.0 mi WSW 9.2 mph - N/A   Partly Cloudy
2:52 PM 80.6 °F 81.5 °F 60.8 °F 51% 29.91 in 10.0 mi WNW 9.2 mph - N/A Thunderstorm Thunderstorm
2:55 PM 79.0 °F - 59.0 °F 50% 29.90 in 10.0 mi WNW 8.1 mph - N/A Thunderstorm Thunderstorm
3:55 PM 72.0 °F - 60.1 °F 66% 29.92 in 10.0 mi WNW 8.1 mph - N/A Thunderstorm Thunderstorm
4:14 PM 71.6 °F - 60.8 °F 69% 29.93 in 10.0 mi NW 6.9 mph - 0.00 in Rain Light Rain
4:55 PM 66.9 °F - 59.0 °F 76% 29.93 in 7.0 mi WNW 8.1 mph - 0.00 in Rain Light Rain
5:55 PM 73.0 °F - 59.0 °F 61% 29.91 in 10.0 mi WNW 5.8 mph - 0.01 in   Partly Cloudy
6:55 PM 69.1 °F - 61.0 °F 75% 29.91 in 10.0 mi SW 8.1 mph - N/A   Scattered Clouds
7:55 PM 66.9 °F - 57.9 °F 73% 29.92 in 10.0 mi WNW 3.5 mph - N/A   Overcast
8:55 PM 64.9 °F - 59.0 °F 81% 29.92 in 10.0 mi Calm Calm - N/A   Mostly Cloudy
9:55 PM 64.0 °F - 59.0 °F 84% 29.94 in 10.0 mi Calm Calm - N/A   Partly Cloudy
10:55 PM 63.0 °F - 59.0 °F 87% 29.94 in 10.0 mi Calm Calm - N/A   Clear
11:55 PM 62.1 °F - 57.9 °F 86% 29.94 in 10.0 mi Calm Calm - N/A   Clear